GW0828 Weather Reports


time (UTC)temp
C
wind
direction
speed
KPH
gust
KPH
rain 1hr
cm
rain 24hr
cm
rain mn
cm
humidity
%
barometer
mb
20260508203052 20 81 6.4 14.5 0.00 0.15 0.13 35 1013.8
20260508202537 20 58 0.0 12.9 0.00 0.15 0.13 33 1013.7
20260508202041 21 352 3.2 12.9 0.00 0.15 0.13 34 1013.9
20260508201550 21 37 1.6 12.9 0.00 0.15 0.13 33 1013.9
20260508201038 21 331 4.8 12.9 0.00 0.15 0.13 35 1013.9
20260508200538 20 11 4.8 17.7 0.00 0.15 0.13 38 1014.1
20260508200107 20 27 8.0 17.7 0.00 0.15 0.13 33 1014.2
20260508195539 20 327 4.8 19.3 0.00 0.15 0.13 35 1014.1
20260508195038 21 302 3.2 19.3 0.00 0.15 0.13 35 1014.3
20260508194550 21 347 9.7 20.9 0.00 0.15 0.13 35 1014.3
20260508194039 20 6 9.7 20.9 0.00 0.15 0.13 36 1014.4
20260508193537 20 8 3.2 17.7 0.00 0.15 0.13 35 1014.5
20260508193131 20 19 8.0 22.5 0.00 0.15 0.13 39 1014.4
20260508192538 20 77 4.8 22.5 0.00 0.15 0.13 33 1014.5
20260508192039 20 0 4.8 22.5 0.00 0.15 0.13 35 1014.6
20260508191550 20 347 3.2 9.7 0.00 0.15 0.13 37 1014.8
20260508191039 20 0 1.6 12.9 0.00 0.15 0.13 32 1014.9
20260508190538 20 12 4.8 12.9 0.00 0.15 0.13 38 1014.9
20260508190052 20 21 3.2 11.3 0.00 0.15 0.13 40 1015.0
20260508185538 20 270 3.2 14.5 0.00 0.15 0.13 39 1014.9
20260508185038 20 335 3.2 14.5 0.00 0.15 0.13 36 1014.9
20260508184604 18 342 1.6 11.3 0.00 0.15 0.13 39 1015.0
20260508184037 19 342 1.6 12.9 0.00 0.15 0.13 39 1015.1
20260508183537 19 335 1.6 12.9 0.00 0.15 0.13 42 1015.2
20260508183113 18 267 3.2 12.9 0.00 0.15 0.13 44 1015.3
20260508182538 18 108 4.8 9.7 0.00 0.15 0.13 42 1015.4
20260508182037 18 0 1.6 11.3 0.00 0.15 0.13 41 1015.5
20260508181604 18 248 1.6 11.3 0.00 0.15 0.13 45 1015.6
20260508181037 18 198 1.6 12.9 0.00 0.15 0.13 47 1015.7
20260508180537 18 250 4.8 12.9 0.00 0.15 0.13 44 1015.9
20260508180053 18 204 4.8 11.3 0.00 0.15 0.13 44 1015.9
20260508175537 18 204 4.8 11.3 0.00 0.15 0.13 48 1016.0
20260508175038 18 121 1.6 11.3 0.00 0.15 0.13 49 1016.1
20260508174551 18 208 6.4 11.3 0.00 0.15 0.13 50 1016.1
20260508174038 17 181 6.4 11.3 0.00 0.15 0.13 46 1016.3
20260508173538 17 0 3.2 12.9 0.00 0.15 0.13 53 1016.3
20260508173046 16 0 1.6 12.9 0.00 0.15 0.13 50 1016.4
20260508172540 17 246 3.2 9.7 0.00 0.15 0.13 49 1016.4
20260508172040 17 218 4.8 11.3 0.00 0.15 0.13 49 1016.5
20260508171547 17 0 3.2 11.3 0.00 0.15 0.13 52 1016.6
20260508171041 17 198 4.8 9.7 0.00 0.15 0.13 51 1016.7
20260508170537 17 122 1.6 11.3 0.00 0.15 0.13 50 1016.6
20260508170056 16 148 6.4 12.9 0.00 0.15 0.13 53 1016.7
20260508165537 16 193 6.4 14.5 0.00 0.15 0.13 52 1016.8
20260508165037 16 252 8.0 14.5 0.00 0.15 0.13 54 1016.8
20260508164551 16 185 8.0 14.5 0.00 0.15 0.13 54 1016.8
20260508164038 16 183 3.2 9.7 0.00 0.15 0.13 55 1016.8
20260508163537 16 279 3.2 11.3 0.00 0.15 0.13 55 1016.8
20260508163049 15 204 1.6 11.3 0.00 0.15 0.13 55 1016.8
20260508162541 15 189 4.8 11.3 0.00 0.15 0.13 55 1017.0
20260508162037 15 211 3.2 14.5 0.00 0.15 0.13 57 1017.0
20260508161551 15 202 8.0 14.5 0.00 0.15 0.13 56 1017.0
20260508161039 15 237 3.2 12.9 0.00 0.15 0.13 57 1017.1
20260508160538 14 271 4.8 12.9 0.00 0.15 0.13 58 1017.0
20260508160049 14 264 3.2 12.9 0.00 0.15 0.13 59 1017.0
20260508155537 15 240 0.0 4.8 0.00 0.15 0.13 57 1017.0
20260508155038 14 0 0.0 8.0 0.00 0.15 0.13 59 1017.1
20260508154608 13 262 1.6 11.3 0.00 0.15 0.13 61 1017.1
20260508154038 13 227 3.2 11.3 0.00 0.15 0.13 62 1017.1
20260508153538 13 0 1.6 9.7 0.00 0.15 0.13 60 1017.1
20260508153048 13 150 1.6 9.7 0.00 0.15 0.13 59 1017.1
20260508152537 13 269 0.0 9.7 0.00 0.15 0.13 64 1017.1
20260508152038 13 0 0.0 9.7 0.00 0.15 0.13 67 1017.3
20260508151548 13 270 3.2 9.7 0.00 0.15 0.13 63 1017.2
20260508151038 12 12 1.6 8.0 0.00 0.15 0.13 67 1017.3
20260508150538 12 0 3.2 8.0 0.00 0.15 0.13 69 1017.2
20260508150050 11 2 3.2 8.0 0.00 0.15 0.13 71 1017.2
20260508145538 11 2 3.2 6.4 0.00 0.15 0.13 73 1017.1
20260508145040 11 360 1.6 6.4 0.00 0.15 0.13 74 1017.1
20260508144600 11 2 1.6 6.4 0.00 0.15 0.13 74 1017.1
20260508144038 11 2 3.2 6.4 0.00 0.15 0.13 74 1017.3
20260508143540 10 0 0.0 3.2 0.00 0.15 0.13 77 1017.3
20260508143053 10 0 0.0 3.2 0.00 0.15 0.13 77 1017.3
20260508142537 10 0 1.6 3.2 0.00 0.15 0.13 77 1017.3
20260508142038 10 0 0.0 3.2 0.00 0.15 0.13 78 1017.3
20260508141549 10 358 0.0 6.4 0.00 0.15 0.13 79 1017.3
20260508141039 10 79 0.0 6.4 0.00 0.15 0.13 80 1017.3
20260508140534 9 73 1.6 6.4 0.00 0.15 0.13 80 1017.1
20260508140046 9 45 0.0 1.6 0.00 0.15 0.13 82 1017.1
20260508135538 9 0 0.0 8.0 0.00 0.15 0.13 84 1017.0
20260508135037 8 0 0.0 8.0 0.00 0.15 0.13 85 1016.9
20260508134558 8 358 3.2 8.0 0.00 0.15 0.13 86 1017.0
20260508134037 8 358 0.0 3.2 0.00 0.15 0.13 88 1016.8
20260508133538 8 0 0.0 0.0 0.00 0.15 0.13 88 1016.6
20260508133057 8 0 0.0 3.2 0.00 0.15 0.13 88 1016.6
20260508132538 8 0 0.0 3.2 0.00 0.15 0.13 88 1016.6
20260508132037 7 0 0.0 6.4 0.00 0.15 0.13 88 1016.3
20260508131550 7 2 0.0 6.4 0.00 0.15 0.13 87 1016.3
20260508131037 7 2 1.6 4.8 0.00 0.15 0.13 87 1016.4
20260508130538 7 3 0.0 4.8 0.00 0.15 0.13 87 1016.3
20260508130047 7 0 0.0 1.6 0.03 0.15 0.13 87 1016.4
20260508125540 7 0 0.0 3.2 0.05 0.15 0.13 87 1016.5
20260508125037 7 0 0.0 3.2 0.05 0.15 0.13 86 1016.5
20260508124548 7 0 0.0 1.6 0.08 0.15 0.13 86 1016.4
20260508124037 7 0 0.0 4.8 0.08 0.15 0.13 86 1016.4
20260508123538 7 0 0.0 4.8 0.08 0.15 0.13 86 1016.4
20260508123054 7 4 1.6 8.0 0.10 0.15 0.13 86 1016.4
20260508122537 7 4 1.6 8.0 0.10 0.15 0.13 86 1016.5
20260508122037 7 2 0.0 8.0 0.10 0.15 0.13 85 1016.3
20260508121547 7 0 3.2 11.3 0.10 0.15 0.13 85 1016.6
20260508121037 7 4 4.8 16.1 0.10 0.15 0.13 85 1016.7
20260508120537 7 4 4.8 20.9 0.10 0.15 0.13 84 1016.7
20260508120046 7 6 8.0 29.0 0.08 0.13 0.10 84 1017.1
20260508115537 8 5 11.3 29.0 0.05 0.10 0.08 83 1017.1
20260508115037 8 6 11.3 32.2 0.05 0.10 0.08 82 1017.3
20260508114545 8 6 9.7 32.2 0.03 0.08 0.05 82 1017.2
20260508114037 8 6 14.5 32.2 0.03 0.08 0.05 81 1017.3
20260508113539 8 8 11.3 29.0 0.00 0.05 0.03 82 1017.3
20260508113048 8 7 9.7 24.1 0.00 0.05 0.03 83 1017.4
20260508112536 7 6 1.6 8.0 0.00 0.05 0.03 82 1017.2
20260508112037 7 0 1.6 9.7 0.00 0.05 0.03 82 1017.1
20260508111555 7 0 1.6 11.3 0.00 0.05 0.03 81 1016.8
20260508111040 7 4 4.8 11.3 0.00 0.05 0.03 81 1016.6
20260508110537 8 3 0.0 6.4 0.00 0.05 0.03 80 1016.3
20260508110050 8 0 1.6 6.4 0.00 0.05 0.03 80 1015.9
20260508105537 8 352 1.6 6.4 0.00 0.05 0.03 79 1016.0
20260508105034 8 6 1.6 6.4 0.00 0.05 0.03 79 1015.9
20260508104545 8 6 1.6 9.7 0.00 0.05 0.03 79 1015.9
20260508104037 8 7 1.6 11.3 0.00 0.05 0.03 79 1015.9
20260508103538 8 356 3.2 11.3 0.00 0.05 0.03 79 1015.9
20260508103053 8 356 3.2 12.9 0.00 0.05 0.03 78 1015.9
20260508102538 8 352 3.2 16.1 0.00 0.05 0.03 78 1015.8
20260508102040 8 356 8.0 22.5 0.00 0.05 0.03 78 1015.9
20260508101545 8 356 6.4 22.5 0.00 0.05 0.03 78 1015.9
20260508101038 8 356 9.7 24.1 0.00 0.05 0.03 78 1015.9
20260508100537 9 6 12.9 24.1 0.00 0.05 0.03 78 1015.8
20260508100106 9 356 14.5 25.7 0.00 0.05 0.03 78 1015.9
20260508095537 9 356 11.3 25.7 0.00 0.05 0.03 79 1015.8
20260508095036 8 347 9.7 25.7 0.00 0.05 0.03 82 1015.9
20260508094601 8 356 1.6 8.0 0.00 0.05 0.03 84 1015.9
20260508094037 8 7 3.2 8.0 0.00 0.05 0.03 85 1015.9
20260508093538 8 352 0.0 6.4 0.00 0.05 0.03 85 1015.9
20260508093045 8 356 3.2 6.4 0.00 0.05 0.03 86 1015.9
20260508092537 8 356 1.6 4.8 0.00 0.05 0.03 85 1016.0
20260508092041 8 352 0.0 3.2 0.00 0.05 0.03 85 1016.1
20260508091603 8 0 0.0 4.8 0.00 0.05 0.03 85 1016.0
20260508091037 8 0 0.0 4.8 0.00 0.05 0.03 85 1015.9
20260508090537 8 0 0.0 6.4 0.00 0.05 0.03 85 1015.8
20260508090109 8 0 1.6 6.4 0.00 0.05 0.03 85 1015.8
20260508085537 8 356 1.6 4.8 0.00 0.05 0.03 84 1015.8
20260508085037 8 0 0.0 4.8 0.00 0.05 0.03 84 1015.6
20260508084547 8 0 0.0 6.4 0.00 0.05 0.03 84 1015.4
20260508084038 8 0 0.0 6.4 0.00 0.05 0.03 84 1015.2
20260508083538 8 2 1.6 4.8 0.03 0.05 0.03 83 1015.1
20260508083050 8 2 1.6 4.8 0.03 0.05 0.03 83 1015.1
20260508082539 8 0 0.0 3.2 0.03 0.05 0.03 83 1015.1
20260508082037 8 2 0.0 6.4 0.03 0.05 0.03 82 1015.0
20260508081603 8 0 1.6 8.0 0.03 0.05 0.03 82 1015.1
20260508081038 9 2 3.2 8.0 0.03 0.05 0.03 82 1014.9
20260508080537 9 2 4.8 8.0 0.03 0.05 0.03 81 1015.1
20260508080056 9 0 1.6 8.0 0.03 0.05 0.03 80 1014.9
20260508075540 9 358 4.8 11.3 0.03 0.05 0.03 80 1014.7
20260508075033 9 358 4.8 11.3 0.03 0.05 0.03 80 1015.2
20260508074550 9 357 1.6 4.8 0.03 0.05 0.03 80 1015.5
20260508074041 9 357 1.6 4.8 0.03 0.05 0.03 80 1015.8
20260508073534 9 0 0.0 6.4 0.00 0.03 0.00 80 1016.0
20260508073105 9 347 1.6 9.7 0.00 0.03 0.00 79 1016.2
20260508072536 9 358 1.6 11.3 0.00 0.03 0.00 79 1016.4
20260508072037 9 4 3.2 11.3 0.00 0.03 0.00 78 1016.6
20260508071548 10 293 1.6 6.4 0.00 0.03 0.00 78 1016.6
20260508071037 10 239 3.2 6.4 0.00 0.03 0.00 78 1016.4
20260508070537 10 237 0.0 3.2 0.00 0.03 0.00 77 1016.0
20260508070052 10 237 0.0 4.8 0.00 0.03 0.00 76 1015.9
20260508065538 10 0 0.0 6.4 0.00 0.03 0.00 76 1016.2
20260508065034 10 281 1.6 8.0 0.00 0.03 0.00 75 1016.3
20260508064554 10 0 1.6 8.0 0.00 0.03 0.00 75 1016.4
20260508064038 10 258 1.6 9.7 0.00 0.03 0.00 75 1016.4
20260508063537 10 337 1.6 9.7 0.00 0.03 0.00 74 1016.3
20260508063054 10 270 1.6 9.7 0.00 0.03 0.00 73 1016.2
20260508062537 10 250 0.0 11.3 0.00 0.03 0.00 74 1015.9
20260508062037 10 352 1.6 14.5 0.00 0.03 0.00 74 1015.8
20260508061605 10 330 3.2 14.5 0.00 0.03 0.00 74 1015.8
20260508061038 10 15 8.0 14.5 0.00 0.03 0.00 74 1015.8
20260508060538 10 356 3.2 8.0 0.00 0.03 0.00 73 1015.6
20260508055534 11 0 0.0 6.4 0.00 0.03 0.03 72 1015.8
20260508055037 11 0 0.0 8.0 0.00 0.03 0.03 71 1015.8
20260508054546 11 21 0.0 11.3 0.00 0.03 0.03 71 1015.7
20260508054036 11 0 3.2 11.3 0.00 0.03 0.03 71 1015.9
20260508053533 11 10 4.8 14.5 0.00 0.03 0.03 70 1015.9
20260508053046 11 28 3.2 14.5 0.00 0.03 0.03 70 1015.9
20260508052537 11 24 6.4 14.5 0.00 0.03 0.03 69 1015.9
20260508052035 11 23 8.0 14.5 0.00 0.03 0.03 68 1015.8
20260508051619 11 42 6.4 17.7 0.00 0.03 0.03 69 1015.7
20260508051037 11 43 8.0 17.7 0.00 0.03 0.03 67 1015.6
20260508050538 12 27 6.4 14.5 0.00 0.03 0.03 67 1015.4
20260508050046 12 44 6.4 12.9 0.00 0.03 0.03 67 1015.4
20260508045537 12 36 3.2 14.5 0.00 0.03 0.03 67 1015.4
20260508045037 12 40 4.8 14.5 0.00 0.03 0.03 66 1015.2
20260508044550 12 46 3.2 12.9 0.00 0.03 0.03 65 1015.1
20260508044036 12 65 4.8 12.9 0.00 0.03 0.03 66 1015.1
20260508043538 12 29 1.6 11.3 0.00 0.03 0.03 66 1015.1
20260508043045 12 62 3.2 17.7 0.00 0.03 0.03 65 1014.9
20260508042538 12 18 6.4 17.7 0.00 0.03 0.03 68 1014.8
20260508042037 12 67 9.7 17.7 0.00 0.03 0.03 67 1014.6
20260508041550 12 77 4.8 11.3 0.00 0.03 0.03 66 1014.3
20260508041037 12 0 0.0 9.7 0.00 0.03 0.03 65 1013.9
20260508040538 12 9 1.6 11.3 0.03 0.03 0.03 64 1014.2
20260508040053 12 335 4.8 14.5 0.03 0.03 0.03 63 1014.5
20260508035537 13 261 3.2 14.5 0.03 0.03 0.03 62 1014.6
20260508035037 13 279 6.4 16.1 0.03 0.03 0.03 61 1014.4
20260508034551 12 309 6.4 20.9 0.03 0.03 0.03 61 1014.2
20260508034034 12 292 6.4 20.9 0.03 0.03 0.03 63 1014.0
20260508033534 12 316 8.0 20.9 0.03 0.03 0.03 63 1013.9
20260508033056 12 283 8.0 20.9 0.03 0.03 0.03 64 1013.8
20260508032537 12 352 8.0 29.0 0.03 0.03 0.03 64 1013.7
20260508032035 12 302 11.3 30.6 0.03 0.03 0.03 65 1013.6
20260508031557 12 318 12.9 35.4 0.03 0.03 0.03 66 1013.7
20260508031034 12 347 14.5 35.4 0.03 0.03 0.03 69 1013.6
20260508030534 11 186 14.5 35.4 0.00 0.00 0.00 72 1013.5
20260508030100 11 298 11.3 27.4 0.00 0.00 0.00 70 1013.4
20260508025533 12 311 11.3 27.4 0.00 0.00 0.00 70 1013.4
20260508025038 12 36 14.5 25.7 0.00 0.00 0.00 68 1013.3
20260508024617 12 63 9.7 19.3 0.00 0.00 0.00 67 1013.3
20260508024033 12 325 6.4 22.5 0.00 0.00 0.00 66 1013.5
20260508023537 12 20 9.7 22.5 0.00 0.00 0.00 66 1013.5
20260508023048 12 296 6.4 24.1 0.00 0.00 0.00 66 1013.6
20260508022537 12 347 8.0 24.1 0.00 0.00 0.00 66 1013.5
20260508022035 12 2 11.3 25.7 0.00 0.00 0.00 68 1013.5
20260508021555 12 319 12.9 25.7 0.00 0.00 0.00 68 1013.6
20260508021036 12 24 12.9 27.4 0.00 0.00 0.00 68 1013.6
20260508020534 12 347 11.3 27.4 0.00 0.00 0.00 66 1013.6
20260508020054 12 339 12.9 29.0 0.00 0.00 0.00 66 1013.4
20260508015534 12 54 14.5 38.6 0.00 0.00 0.00 64 1013.4
20260508015037 14 347 16.1 38.6 0.00 0.00 0.00 60 1013.6
20260508014552 15 338 17.7 35.4 0.00 0.00 0.00 51 1013.7
20260508014039 15 309 4.8 14.5 0.00 0.00 0.00 47 1013.4
20260508013537 15 308 4.8 14.5 0.00 0.00 0.00 46 1013.2
20260508013052 16 298 4.8 12.9 0.00 0.00 0.00 45 1012.9
20260508012537 16 286 3.2 16.1 0.00 0.00 0.00 45 1012.9
20260508012037 16 324 4.8 22.5 0.00 0.00 0.00 45 1012.7
20260508011548 16 323 4.8 22.5 0.00 0.00 0.00 44 1012.8
20260508011038 16 318 6.4 16.1 0.00 0.00 0.00 44 1012.7
20260508010535 16 307 4.8 16.1 0.00 0.00 0.00 44 1012.7
20260508010053 16 305 4.8 16.1 0.00 0.00 0.00 43 1012.6
20260508005535 16 333 3.2 20.9 0.00 0.00 0.00 44 1012.6
20260508005035 16 347 4.8 20.9 0.00 0.00 0.00 44 1012.5
20260508004552 16 316 6.4 14.5 0.00 0.00 0.00 43 1012.6
20260508004035 16 314 1.6 14.5 0.00 0.00 0.00 42 1012.5
20260508003536 16 289 4.8 19.3 0.00 0.00 0.00 41 1012.4
20260508003044 16 279 3.2 22.5 0.00 0.00 0.00 40 1012.3
20260508002536 16 270 12.9 29.0 0.00 0.00 0.00 39 1012.3
20260508002037 16 297 14.5 29.0 0.00 0.00 0.00 39 1012.6
20260508001548 16 242 6.4 19.3 0.00 0.00 0.00 40 1012.6
20260508001037 16 293 6.4 22.5 0.00 0.00 0.00 40 1012.5
20260508000538 17 264 9.7 24.1 0.00 0.00 0.00 39 1012.5
20260508000053 17 42 9.7 24.1 0.00 0.00 0.00 39 1012.5
20260507235537 17 308 8.0 24.1 0.00 0.00 0.00 37 1012.6
20260507235037 17 267 11.3 30.6 0.00 0.00 0.00 36 1012.5
20260507234545 17 27 11.3 37.0 0.00 0.00 0.00 34 1012.6
20260507234034 17 260 16.1 37.0 0.00 0.00 0.00 34 1012.6
20260507233537 18 276 16.1 32.2 0.00 0.00 0.00 35 1012.4
20260507233046 18 287 8.0 22.5 0.00 0.00 0.00 36 1012.4
20260507232534 18 320 9.7 22.5 0.00 0.00 0.00 37 1012.2
20260507232035 18 23 8.0 22.5 0.00 0.00 0.00 37 1012.2
20260507231555 18 333 4.8 19.3 0.00 0.00 0.00 36 1012.1
20260507231033 18 352 8.0 19.3 0.00 0.00 0.00 35 1012.0
20260507230541 18 325 3.2 20.9 0.00 0.00 0.00 36 1012.0
20260507230104 18 352 8.0 20.9 0.00 0.00 0.00 34 1012.0
20260507225537 19 352 9.7 20.9 0.00 0.00 0.00 35 1011.8
20260507225037 19 339 6.4 20.9 0.00 0.00 0.00 30 1011.9
20260507224553 19 312 4.8 20.9 0.00 0.00 0.00 28 1011.8
20260507224041 20 293 8.0 22.5 0.00 0.00 0.00 28 1011.8
20260507223537 20 261 8.0 38.6 0.00 0.00 0.00 27 1011.9
20260507223046 20 269 8.0 38.6 0.00 0.00 0.00 26 1011.8
20260507222534 21 302 19.3 38.6 0.00 0.00 0.00 25 1011.8
20260507222037 21 267 16.1 30.6 0.00 0.00 0.00 26 1011.9
20260507221553 21 282 12.9 32.2 0.00 0.00 0.00 27 1011.8
20260507221036 21 278 12.9 33.8 0.00 0.00 0.00 26 1011.9
20260507220538 21 271 16.1 33.8 0.00 0.00 0.00 26 1011.8
20260507220053 21 250 16.1 33.8 0.00 0.00 0.00 26 1011.7
20260507215537 21 267 14.5 33.8 0.00 0.00 0.00 26 1011.9
20260507215036 21 292 14.5 40.2 0.00 0.00 0.00 25 1011.8
20260507214552 21 254 16.1 40.2 0.00 0.00 0.00 27 1011.9
20260507214033 21 296 12.9 33.8 0.00 0.00 0.00 25 1012.1
20260507213536 21 258 8.0 38.6 0.00 0.00 0.00 26 1012.1
20260507213052 21 250 12.9 38.6 0.00 0.00 0.00 26 1012.3
20260507212534 21 278 14.5 29.0 0.00 0.00 0.00 26 1012.5
20260507212037 21 258 12.9 33.8 0.00 0.00 0.00 27 1012.6
20260507211546 21 252 12.9 33.8 0.00 0.00 0.00 26 1012.6
20260507211034 21 252 12.9 38.6 0.00 0.00 0.00 27 1012.6
20260507210537 20 244 12.9 38.6 0.00 0.00 0.00 26 1012.8
20260507205534 21 241 12.9 27.4 0.00 0.00 0.00 26 1012.9
20260507205034 21 289 6.4 24.1 0.00 0.00 0.00 27 1013.0
20260507204546 20 279 9.7 33.8 0.00 0.00 0.00 28 1013.1
20260507204037 20 330 14.5 33.8 0.00 0.00 0.00 28 1013.1
20260507203535 20 318 9.7 25.7 0.00 0.00 0.00 27 1013.1